Location: Allentsteig
(48.6833°N, 15.3167°E)
Time: 22:18:40
(UTC+00:00)

USA 238 DEB - Pass Details

Date: 26 January 2021
Orbit: 995 x 1217 km, 63.4° (Epoch: 07 March)

Event Time Altitude Azimuth Distance (km) Brightness Sun altitude
Rises 04:47:13 0° 213° (SSW) 3,718 6.3 -17.8°
Reaches altitude 10° 04:49:45 10° 212° (SSW) 2,786 5.7 -17.4°
Maximum altitude 04:56:17 78° 128° (SE) 1,068 3.8 -16.3°
Drops below altitude 10° 05:03:12 10° 43° (NE) 2,934 6.4 -15.2°
Sets 05:05:56 0° 42° (NE) 3,927 7.1 -14.8°
